Location: Condor
(52.3263°N, 114.5541°W)
Time: 01:41:03
(UTC+00:00)

SO-50 - Pass Details

Date: 05 December 2023
Orbit: 608 x 661 km, 64.6° (Epoch: 28 February)

Event Time Altitude Azimuth Distance (km) Brightness Sun altitude
Exits shadow 14:40:49 - 304° (WNW) 2,143 ? -7.3°
Reaches altitude 10° 14:41:08 10° 306° (NW) 2,054 ? -7.2°
Maximum altitude 14:44:26 19° 352° (N) 1,545 ? -6.8°
Drops below altitude 10° 14:47:42 10° 37° (NE) 2,030 ? -6.4°
Sets 14:50:35 0° 56° (NE) 2,927 ? -6.0°
